Time,TemperatureF,DewpointF,PressureIn,WindDirection,WindDirectionDegrees,WindSpeedMPH,WindSpeedGustMPH,Humidity,HourlyPrecipIn,Conditions,Clouds,dailyrainin,SoftwareType,DateUTC
2013-01-07 00:03:00,23.5,19.0,30.42,ENE,57,0.0,0.0,84,0.00,,,0.00,weatherlink.com 1.10,2013-01-07 06:03:00,
2013-01-07 00:18:00,23.3,20.0,30.42,ENE,57,0.0,0.0,85,0.00,,,0.00,weatherlink.com 1.10,2013-01-07 06:18:00,
2013-01-07 00:33:00,23.3,20.0,30.42,ENE,57,0.0,0.0,85,0.00,,,0.00,weatherlink.com 1.10,2013-01-07 06:33:00,
2013-01-07 00:48:00,23.0,19.0,30.42,ENE,57,0.0,0.0,85,0.00,,,0.00,weatherlink.com 1.10,2013-01-07 06:48:00,
2013-01-07 01:03:00,23.2,20.0,30.41,ENE,57,0.0,0.0,86,0.00,,,0.00,weatherlink.com 1.10,2013-01-07 07:03:00,
2013-01-07 01:18:00,22.9,19.0,30.41,ENE,57,0.0,0.0,85,0.00,,,0.00,weatherlink.com 1.10,2013-01-07 07:18:00,
2013-01-07 01:33:00,22.5,19.0,30.41,ENE,57,0.0,0.0,85,0.00,,,0.00,weatherlink.com 1.10,2013-01-07 07:33:00,
2013-01-07 01:48:00,22.2,19.0,30.41,ENE,57,0.0,0.0,86,0.00,,,0.00,weatherlink.com 1.10,2013-01-07 07:48:00,
2013-01-07 02:03:00,22.2,19.0,30.40,ENE,57,0.0,0.0,87,0.00,,,0.00,weatherlink.com 1.10,2013-01-07 08:03:00,
2013-01-07 02:18:00,21.9,18.0,30.40,ENE,57,0.0,0.0,86,0.00,,,0.00,weatherlink.com 1.10,2013-01-07 08:18:00,
2013-01-07 02:33:00,21.9,19.0,30.39,ENE,57,0.0,0.0,87,0.00,,,0.00,weatherlink.com 1.10,2013-01-07 08:33:00,
2013-01-07 02:48:00,21.7,18.0,30.39,ENE,57,0.0,0.0,87,0.00,,,0.00,weatherlink.com 1.10,2013-01-07 08:48:00,
2013-01-07 03:04:00,21.5,18.0,30.39,ENE,57,0.0,0.0,87,0.00,,,0.00,weatherlink.com 1.10,2013-01-07 09:04:00,
2013-01-07 03:19:00,21.2,18.0,30.39,ENE,57,0.0,0.0,87,0.00,,,0.00,weatherlink.com 1.10,2013-01-07 09:19:00,
2013-01-07 03:34:00,21.1,18.0,30.38,ENE,57,0.0,0.0,87,0.00,,,0.00,weatherlink.com 1.10,2013-01-07 09:34:00,
2013-01-07 03:49:00,20.9,18.0,30.38,ENE,57,0.0,0.0,87,0.00,,,0.00,weatherlink.com 1.10,2013-01-07 09:49:00,
2013-01-07 04:04:00,20.7,17.0,30.38,ENE,57,0.0,0.0,87,0.00,,,0.00,weatherlink.com 1.10,2013-01-07 10:04:00,
2013-01-07 04:19:00,20.5,18.0,30.38,ENE,57,0.0,0.0,88,0.00,,,0.00,weatherlink.com 1.10,2013-01-07 10:19:00,
2013-01-07 04:34:00,20.1,17.0,30.37,ENE,57,0.0,0.0,88,0.00,,,0.00,weatherlink.com 1.10,2013-01-07 10:34:00,
2013-01-07 04:49:00,19.9,17.0,30.37,ENE,57,0.0,0.0,88,0.00,,,0.00,weatherlink.com 1.10,2013-01-07 10:49:00,
2013-01-07 05:04:00,19.5,17.0,30.37,ENE,57,0.0,0.0,88,0.00,,,0.00,weatherlink.com 1.10,2013-01-07 11:04:00,
2013-01-07 05:19:00,19.3,16.0,30.38,ENE,57,0.0,0.0,88,0.00,,,0.00,weatherlink.com 1.10,2013-01-07 11:19:00,
2013-01-07 05:34:00,19.1,16.0,30.38,ENE,57,0.0,0.0,88,0.00,,,0.00,weatherlink.com 1.10,2013-01-07 11:34:00,
2013-01-07 05:49:00,19.3,17.0,30.38,ENE,57,0.0,0.0,89,0.00,,,0.00,weatherlink.com 1.10,2013-01-07 11:49:00,
2013-01-07 06:04:00,19.5,17.0,30.38,ENE,57,0.0,0.0,89,0.00,,,0.00,weatherlink.com 1.10,2013-01-07 12:04:00,
2013-01-07 06:19:00,19.5,17.0,30.39,ENE,57,0.0,0.0,89,0.00,,,0.00,weatherlink.com 1.10,2013-01-07 12:19:00,
2013-01-07 06:34:00,19.5,17.0,30.38,ENE,57,0.0,0.0,88,0.00,,,0.00,weatherlink.com 1.10,2013-01-07 12:34:00,
2013-01-07 06:49:00,19.6,17.0,30.39,ENE,57,0.0,0.0,88,0.00,,,0.00,weatherlink.com 1.10,2013-01-07 12:49:00,
2013-01-07 07:04:00,19.5,17.0,30.38,ENE,57,0.0,0.0,88,0.00,,,0.00,weatherlink.com 1.10,2013-01-07 13:04:00,
2013-01-07 07:19:00,19.5,17.0,30.38,ENE,57,0.0,0.0,88,0.00,,,0.00,weatherlink.com 1.10,2013-01-07 13:19:00,
2013-01-07 07:34:00,19.5,16.0,30.39,ENE,57,0.0,0.0,87,0.00,,,0.00,weatherlink.com 1.10,2013-01-07 13:34:00,
2013-01-07 07:49:00,22.0,20.0,30.39,South,177,3.0,5.0,91,0.00,,,0.00,weatherlink.com 1.10,2013-01-07 13:49:00,
2013-01-07 08:04:00,28.3,24.0,30.39,South,170,5.0,7.0,84,0.00,,,0.00,weatherlink.com 1.10,2013-01-07 14:04:00,
2013-01-07 08:19:00,29.4,24.0,30.39,SSW,192,6.0,10.0,81,0.00,,,0.00,weatherlink.com 1.10,2013-01-07 14:19:00,
2013-01-07 08:34:00,30.4,25.0,30.39,SSE,166,7.0,10.0,80,0.00,,,0.00,weatherlink.com 1.10,2013-01-07 14:34:00,
2013-01-07 08:49:00,31.1,25.0,30.40,South,182,5.0,10.0,79,0.00,,,0.00,weatherlink.com 1.10,2013-01-07 14:49:00,
2013-01-07 09:04:00,32.4,26.0,30.41,South,176,7.0,10.0,78,0.00,,,0.00,weatherlink.com 1.10,2013-01-07 15:04:00,
2013-01-07 09:19:00,33.8,27.0,30.40,South,185,9.0,12.0,77,0.00,,,0.00,weatherlink.com 1.10,2013-01-07 15:19:00,
2013-01-07 09:34:00,35.3,28.0,30.40,SSW,194,8.0,10.0,74,0.00,,,0.00,weatherlink.com 1.10,2013-01-07 15:34:00,
2013-01-07 09:49:00,36.6,28.0,30.40,South,169,10.0,15.0,71,0.00,,,0.00,weatherlink.com 1.10,2013-01-07 15:49:00,
2013-01-07 10:04:00,38.0,28.0,30.40,South,179,9.0,15.0,67,0.00,,,0.00,weatherlink.com 1.10,2013-01-07 16:04:00,
2013-01-07 10:19:00,39.0,28.0,30.39,South,188,12.0,15.0,66,0.00,,,0.00,weatherlink.com 1.10,2013-01-07 16:19:00,
2013-01-07 10:34:00,40.5,29.0,30.40,South,182,9.0,15.0,64,0.00,,,0.00,weatherlink.com 1.10,2013-01-07 16:34:00,
2013-01-07 10:49:00,41.4,29.0,30.39,SSE,165,10.0,15.0,62,0.00,,,0.00,weatherlink.com 1.10,2013-01-07 16:49:00,
2013-01-07 11:04:00,42.4,30.0,30.38,South,173,5.0,13.0,62,0.00,,,0.00,weatherlink.com 1.10,2013-01-07 17:04:00,
2013-01-07 11:19:00,43.9,31.0,30.37,South,181,6.0,16.0,60,0.00,,,0.00,weatherlink.com 1.10,2013-01-07 17:19:00,
2013-01-07 11:34:00,43.8,31.0,30.36,South,182,16.0,21.0,60,0.00,,,0.00,weatherlink.com 1.10,2013-01-07 17:34:00,
2013-01-07 11:49:00,44.4,31.0,30.35,SSE,158,11.0,19.0,59,0.00,,,0.00,weatherlink.com 1.10,2013-01-07 17:49:00,
2013-01-07 12:04:00,44.6,30.0,30.34,South,187,13.0,18.0,58,0.00,,,0.00,weatherlink.com 1.10,2013-01-07 18:04:00,
2013-01-07 12:19:00,45.4,31.0,30.32,South,177,14.0,19.0,57,0.00,,,0.00,weatherlink.com 1.10,2013-01-07 18:19:00,
2013-01-07 12:34:00,46.1,32.0,30.31,South,173,10.0,19.0,58,0.00,,,0.00,weatherlink.com 1.10,2013-01-07 18:34:00,
2013-01-07 12:49:00,46.2,31.0,30.30,South,185,14.0,19.0,56,0.00,,,0.00,weatherlink.com 1.10,2013-01-07 18:49:00,
2013-01-07 13:04:00,47.1,31.0,30.29,South,184,8.0,15.0,55,0.00,,,0.00,weatherlink.com 1.10,2013-01-07 19:04:00,
2013-01-07 13:19:00,48.3,32.0,30.28,South,182,10.0,17.0,53,0.00,,,0.00,weatherlink.com 1.10,2013-01-07 19:19:00,
2013-01-07 13:34:00,49.4,31.0,30.27,South,189,6.0,14.0,50,0.00,,,0.00,weatherlink.com 1.10,2013-01-07 19:34:00,
2013-01-07 13:49:00,50.5,30.0,30.27,SSW,192,11.0,19.0,46,0.00,,,0.00,weatherlink.com 1.10,2013-01-07 19:49:00,
2013-01-07 14:05:00,50.6,30.0,30.25,SSE,164,10.0,16.0,46,0.00,,,0.00,weatherlink.com 1.10,2013-01-07 20:05:00,
2013-01-07 14:20:00,50.2,30.0,30.25,South,177,12.0,17.0,46,0.00,,,0.00,weatherlink.com 1.10,2013-01-07 20:20:00,
2013-01-07 14:35:00,51.0,30.0,30.24,South,178,15.0,20.0,45,0.00,,,0.00,weatherlink.com 1.10,2013-01-07 20:35:00,
2013-01-07 14:50:00,51.2,31.0,30.24,South,171,10.0,18.0,46,0.00,,,0.00,weatherlink.com 1.10,2013-01-07 20:50:00,
2013-01-07 15:05:00,51.3,31.0,30.24,South,173,12.0,19.0,46,0.00,,,0.00,weatherlink.com 1.10,2013-01-07 21:05:00,
2013-01-07 15:20:00,51.1,30.0,30.24,South,169,11.0,15.0,45,0.00,,,0.00,weatherlink.com 1.10,2013-01-07 21:20:00,
2013-01-07 15:35:00,50.7,30.0,30.23,South,191,9.0,18.0,46,0.00,,,0.00,weatherlink.com 1.10,2013-01-07 21:35:00,
2013-01-07 15:50:00,50.6,31.0,30.23,South,171,7.0,12.0,47,0.00,,,0.00,weatherlink.com 1.10,2013-01-07 21:50:00,
2013-01-07 16:05:00,50.6,32.0,30.23,SSE,148,6.0,10.0,49,0.00,,,0.00,weatherlink.com 1.10,2013-01-07 22:05:00,
2013-01-07 16:20:00,50.6,31.0,30.22,South,169,9.0,11.0,47,0.00,,,0.00,weatherlink.com 1.10,2013-01-07 22:20:00,
2013-01-07 16:35:00,50.1,30.0,30.22,South,172,5.0,11.0,47,0.00,,,0.00,weatherlink.com 1.10,2013-01-07 22:35:00,
2013-01-07 16:50:00,49.6,30.0,30.22,South,172,6.0,12.0,47,0.00,,,0.00,weatherlink.com 1.10,2013-01-07 22:50:00,
2013-01-07 17:05:00,49.2,30.0,30.22,SSE,160,10.0,11.0,48,0.00,,,0.00,weatherlink.com 1.10,2013-01-07 23:05:00,
2013-01-07 17:20:00,48.3,30.0,30.23,South,173,4.0,8.0,49,0.00,,,0.00,weatherlink.com 1.10,2013-01-07 23:20:00,
2013-01-07 17:35:00,47.6,30.0,30.23,South,173,4.0,4.0,50,0.00,,,0.00,weatherlink.com 1.10,2013-01-07 23:35:00,
2013-01-07 17:50:00,47.2,30.0,30.23,South,172,3.0,5.0,51,0.00,,,0.00,weatherlink.com 1.10,2013-01-07 23:50:00,
2013-01-07 18:05:00,46.7,30.0,30.23,South,171,3.0,6.0,53,0.00,,,0.00,weatherlink.com 1.10,2013-01-08 00:05:00,
2013-01-07 18:20:00,46.2,30.0,30.23,SSE,166,6.0,8.0,54,0.00,,,0.00,weatherlink.com 1.10,2013-01-08 00:20:00,
2013-01-07 18:35:00,45.6,30.0,30.23,South,181,5.0,8.0,55,0.00,,,0.00,weatherlink.com 1.10,2013-01-08 00:35:00,
2013-01-07 18:50:00,44.7,30.0,30.23,South,182,2.0,7.0,56,0.00,,,0.00,weatherlink.com 1.10,2013-01-08 00:50:00,
2013-01-07 19:05:00,44.7,30.0,30.22,SSE,158,5.0,7.0,56,0.00,,,0.00,weatherlink.com 1.10,2013-01-08 01:05:00,
2013-01-07 19:20:00,44.3,30.0,30.22,SSE,164,5.0,7.0,57,0.00,,,0.00,weatherlink.com 1.10,2013-01-08 01:20:00,
2013-01-07 19:35:00,43.7,30.0,30.22,SSE,155,2.0,7.0,58,0.00,,,0.00,weatherlink.com 1.10,2013-01-08 01:35:00,
2013-01-07 19:50:00,42.9,29.0,30.21,SSE,155,2.0,5.0,59,0.00,,,0.00,weatherlink.com 1.10,2013-01-08 01:50:00,
2013-01-07 20:05:00,42.5,29.0,30.21,SSE,155,1.0,4.0,60,0.00,,,0.00,weatherlink.com 1.10,2013-01-08 02:05:00,
2013-01-07 20:20:00,41.7,29.0,30.20,SSE,155,3.0,5.0,62,0.00,,,0.00,weatherlink.com 1.10,2013-01-08 02:20:00,
2013-01-07 20:35:00,41.1,29.0,30.21,SSE,155,2.0,4.0,63,0.00,,,0.00,weatherlink.com 1.10,2013-01-08 02:35:00,
2013-01-07 20:50:00,39.8,30.0,30.21,SSE,155,2.0,3.0,67,0.00,,,0.00,weatherlink.com 1.10,2013-01-08 02:50:00,
2013-01-07 21:06:00,41.6,30.0,30.20,SSE,165,4.0,6.0,63,0.00,,,0.00,weatherlink.com 1.10,2013-01-08 03:06:00,
2013-01-07 21:21:00,40.7,30.0,30.20,SSE,165,1.0,3.0,65,0.00,,,0.00,weatherlink.com 1.10,2013-01-08 03:21:00,
2013-01-07 21:36:00,39.7,29.0,30.20,SSE,161,2.0,4.0,67,0.00,,,0.00,weatherlink.com 1.10,2013-01-08 03:36:00,
2013-01-07 21:51:00,40.1,29.0,30.20,SSE,157,3.0,6.0,66,0.00,,,0.00,weatherlink.com 1.10,2013-01-08 03:51:00,
2013-01-07 22:06:00,39.4,29.0,30.20,SSE,157,0.0,3.0,66,0.00,,,0.00,weatherlink.com 1.10,2013-01-08 04:06:00,
2013-01-07 22:21:00,37.4,28.0,30.19,SSE,157,0.0,0.0,70,0.00,,,0.00,weatherlink.com 1.10,2013-01-08 04:21:00,
2013-01-07 22:36:00,36.3,28.0,30.19,SSE,157,0.0,2.0,73,0.00,,,0.00,weatherlink.com 1.10,2013-01-08 04:36:00,
2013-01-07 22:51:00,35.5,28.0,30.19,SSE,157,0.0,0.0,74,0.00,,,0.00,weatherlink.com 1.10,2013-01-08 04:51:00,
2013-01-07 23:21:00,37.4,29.0,30.18,South,172,1.0,5.0,71,0.00,,,0.00,weatherlink.com 1.10,2013-01-08 05:21:00,
2013-01-07 23:36:00,36.0,28.0,30.18,South,172,0.0,2.0,72,0.00,,,0.00,weatherlink.com 1.10,2013-01-08 05:36:00,
2013-01-07 23:51:00,36.7,29.0,30.18,South,177,4.0,6.0,74,0.00,,,0.00,weatherlink.com 1.10,2013-01-08 05:51:00,